sat.trackr.live / text

‹ back to catalog

THEMIS D

NORAD 30797 · 2007-004D

PAYLOAD ACTIVE UNKNOWN

§ Identity

Operator
Country
US
Launch date
2007-02-17
Launch site
AFETR
Launch vehicle
Mass (kg)
RCS (m²)
0.50

External: N2YO · Heavens-Above · Gunter

§ Orbital elements

Epoch: 2026-09-19T00:12:56.659104Z

Period
1,639.26 min
Inclination
8.2353°
Eccentricity
0.8304765
Mean motion
0.87844503 rev/d
Perigee alt
1,428.9 km
Apogee alt
77,921.0 km
Semi-major
46,053.1 km
B*
0.0000e+0
RAAN
74.8982°
Arg perigee
246.4572°
Mean anomaly
9.5625°
Rev number
4,189

§ Raw data

THEMIS D1 30797U 07004D   26262.00898911 -.00000481  00000+0  00000+0 0  99932 30797   8.2353  74.8982 8304765 246.4572   9.5625  0.87844503 41898

JSON: /api/v1/satellites/30797 · /tle

For live sub-satellite position, see the globe view (requires WebGL).

§ Visibility from observer

Set your observer location to see the next 7 days of passes ≥ 10°. The values pass through the URL so the page stays shareable.

No JS? Fill the form by hand. The geolocation button needs JavaScript.